Christchurch, New Zealand

10:41 PM NZDT on November 22, 2017 (GMT +1300)
Christchurch

Weather History for 93780 - April, 2013

Change the Weather History Date:

Saturday, April 6, 2013

  Actual Average Record
Temperature  
Mean Temperature 46 °F -  
Max Temperature 55 °F 59 °F - ()
Min Temperature 37 °F 41 °F - ()
Degree Days  
Heating Degree Days 19    
Moisture  
Dew Point 42 °F    
Average Humidity 81    
Maximum Humidity 100    
Minimum Humidity 58    
Precipitation  
Precipitation 0.00 in - - ()
Sea Level Pressure  
Sea Level Pressure 30.31 in    
Wind  
Wind Speed 5 mph ()    
Max Wind Speed 15 mph    
Max Gust Speed -    
Visibility 6.2 miles    
Events      
T = Trace of Precipitation, MM = Missing Value Source: Averaged Metar Reports

Daily Weather History Graph

Daily Weather History Graph

Search for Another Location

Airport or City:

Trip Planner

Search our weather history database for the weather conditions in past years. The results will help you decide how hot, cold, wet, or windy it might be!

Date:

Astronomy

Apr. 06, 2013 Rise Set
Actual Time 7:51 AM NZDT 7:11 PM NZDT
Civil Twilight 7:23 AM NZDT 7:40 PM NZDT
Nautical Twilight 6:50 AM NZDT 8:13 PM NZDT
Astronomical Twilight 6:16 AM NZDT 8:46 PM NZDT
Moon 3:03 AM NZDT (4/6) 4:43 PM NZDT (4/6)
Length of Visible Light 12h 17m
Length of Day
11h 19m
Waning Crescent, 21% of the Moon is Illuminated
Apr 6
Waning Crescent
Apr 10
New
Apr 19
First Quarter
Apr 26
Full
May 2
Last Quarter

Hourly Weather History & Observations

Time (NZDT) Temp. Windchill Dew Point Humidity Pressure Visibility Wind Dir Wind Speed Gust Speed Precip Events Conditions
12:00 AM 46.4 °F 44.3 °F 44.6 °F 93% 30.30 in 6.2 mi West 4.6 mph - N/A   Partly Cloudy
1:00 AM 41.0 °F - 39.2 °F 93% 30.30 in 6.2 mi WSW 2.3 mph - N/A   Partly Cloudy
2:00 AM 41.0 °F - 39.2 °F 93% 30.30 in 6.2 mi SSE 1.2 mph - N/A   Partly Cloudy
3:00 AM 41.0 °F - 39.2 °F 93% 30.27 in - SSW 1.2 mph - N/A   Clear
4:00 AM 39.2 °F - 39.2 °F 100% 30.30 in - SSW 2.3 mph - N/A   Clear
5:00 AM 37.4 °F 34.9 °F 37.4 °F 100% 30.27 in 6.2 mi SSW 3.5 mph - N/A   Partly Cloudy
6:00 AM 42.8 °F 41.1 °F 41.0 °F 93% 30.30 in 6.2 mi West 3.5 mph - N/A   Scattered Clouds
7:00 AM 44.6 °F 42.2 °F 44.6 °F 100% 30.30 in 6.2 mi West 4.6 mph - N/A   Mostly Cloudy
8:00 AM 46.4 °F 44.3 °F 44.6 °F 93% 30.30 in 6.2 mi West 4.6 mph - N/A   Mostly Cloudy
9:00 AM 46.4 °F 44.3 °F 44.6 °F 93% 30.33 in 6.2 mi WSW 4.6 mph - N/A   Mostly Cloudy
10:00 AM 50.0 °F - 46.4 °F 87% 30.33 in 6.2 mi WSW 5.8 mph - N/A   Mostly Cloudy
11:00 AM 53.6 °F - 44.6 °F 72% 30.33 in 6.2 mi SSW 9.2 mph - N/A   Mostly Cloudy
12:00 PM 53.6 °F - 42.8 °F 67% 30.33 in 6.2 mi WSW 8.1 mph - N/A   Mostly Cloudy
1:00 PM 53.6 °F - 42.8 °F 67% 30.33 in 6.2 mi SSW 9.2 mph - N/A   Mostly Cloudy
2:00 PM 55.4 °F - 42.8 °F 63% 30.30 in 6.2 mi SW 11.5 mph - N/A   Mostly Cloudy
3:00 PM 55.4 °F - 41.0 °F 58% 30.30 in 6.2 mi SSW 11.5 mph - N/A   Mostly Cloudy
4:00 PM 55.4 °F - 41.0 °F 58% 30.30 in 6.2 mi SW 11.5 mph - N/A   Mostly Cloudy
5:00 PM 55.4 °F - 41.0 °F 58% 30.30 in 6.2 mi SSW 15.0 mph - N/A   Mostly Cloudy
6:00 PM 55.4 °F - 41.0 °F 58% 30.30 in 6.2 mi SSW 11.5 mph - N/A   Mostly Cloudy
7:00 PM 51.8 °F - 41.0 °F 67% 30.30 in 6.2 mi South 10.4 mph - N/A   Scattered Clouds
8:00 PM 44.6 °F 40.2 °F 39.2 °F 81% 30.30 in 6.2 mi SSW 8.1 mph - N/A   Scattered Clouds
9:00 PM 44.6 °F 41.4 °F 41.0 °F 87% 30.33 in 6.2 mi SW 5.8 mph - N/A   Scattered Clouds
10:00 PM 44.6 °F 43.1 °F 39.2 °F 81% 30.36 in 6.2 mi WSW 3.5 mph - N/A   Partly Cloudy
11:00 PM 44.6 °F 42.2 °F 41.0 °F 87% 30.36 in 6.2 mi West 4.6 mph - N/A   Partly Cloudy